Location: Ch�risy
(50.2331°N, 2.9131°E)
Time: 02:20:03
(UTC+00:00)

CZ-4B R/B - Pass Details

Date: 17 January 2021
Orbit: 809 x 882 km, 99.1° (Epoch: 28 February)

Event Time Altitude Azimuth Distance (km) Brightness Sun altitude
Rises 17:17:13 0° 168° (SSE) 3,395 6.5 -9.4°
Reaches altitude 10° 17:19:33 10° 170° (S) 2,475 5.8 -9.7°
Maximum altitude 17:25:04 75° 256° (WSW) 899 3.5 -10.5°
Drops below altitude 10° 17:30:43 10° 342° (NNW) 2,536 5.7 -11.4°
Sets 17:33:08 0° 344° (NNW) 3,485 6.4 -11.8°
